GW2585 Weather Reports


time (UTC)temp
C
wind
direction
speed
KPH
gust
KPH
rain 1hr
cm
rain 24hr
cm
rain mn
cm
humidity
%
barometer
mb
20260906202716 39 135 0.0 0.0 0.00 0.00 0.00 40 1011.0
20260906202215 38 138 0.0 0.0 0.00 0.00 0.00 39 1011.1
20260906201710 39 323 3.2 3.2 0.00 0.00 0.00 37 1011.6
20260906201209 39 131 0.0 0.0 0.00 0.00 0.00 38 1011.3
20260906200705 39 345 1.6 1.6 0.00 0.00 0.00 39 1011.5
20260906200201 39 132 0.0 0.0 0.00 0.00 0.00 39 1011.6
20260906195656 38 114 0.0 1.6 0.00 0.00 0.00 38 1011.6
20260906195153 38 207 1.6 3.2 0.00 0.00 0.00 38 1011.7
20260906194649 38 307 0.0 0.0 0.00 0.00 0.00 39 1011.7
20260906194143 39 291 0.0 0.0 0.00 0.00 0.00 39 1011.6
20260906193638 38 123 0.0 1.6 0.00 0.00 0.00 38 1011.9
20260906193134 39 79 1.6 1.6 0.00 0.00 0.00 37 1011.9
20260906192629 38 126 1.6 3.2 0.00 0.00 0.00 41 1011.8
20260906192128 38 137 0.0 1.6 0.00 0.00 0.00 42 1011.6
20260906191624 37 124 0.0 0.0 0.00 0.00 0.00 40 1012.0
20260906191122 37 186 1.6 1.6 0.00 0.00 0.00 42 1012.2
20260906190617 38 221 1.6 1.6 0.00 0.00 0.00 40 1012.2
20260906190112 38 133 0.0 0.0 0.00 0.00 0.00 41 1012.4
20260906185610 38 152 0.0 1.6 0.00 0.00 0.00 41 1012.6
20260906185109 38 127 0.0 0.0 0.00 0.00 0.00 42 1012.4
20260906184604 38 134 0.0 0.0 0.00 0.00 0.00 41 1012.3
20260906184100 38 162 0.0 0.0 0.00 0.00 0.00 40 1012.7
20260906183556 38 112 0.0 1.6 0.00 0.00 0.00 42 1012.7
20260906183052 38 209 1.6 1.6 0.00 0.00 0.00 41 1012.8
20260906182546 38 105 0.0 0.0 0.00 0.00 0.00 41 1012.7
20260906182043 38 155 0.0 0.0 0.00 0.00 0.00 41 1012.9
20260906181538 37 139 0.0 0.0 0.00 0.00 0.00 43 1012.9
20260906181034 37 154 0.0 0.0 0.00 0.00 0.00 41 1013.3
20260906180528 37 168 0.0 0.0 0.00 0.00 0.00 43 1013.3
20260906180027 37 139 0.0 0.0 0.00 0.00 0.00 41 1013.3
20260906175526 37 183 0.0 1.6 0.00 0.00 0.00 46 1013.3
20260906175027 37 294 1.6 1.6 0.00 0.00 0.00 43 1013.4
20260906174525 37 141 0.0 0.0 0.00 0.00 0.00 44 1013.6
20260906174020 36 146 0.0 0.0 0.00 0.00 0.00 44 1013.7
20260906173515 36 146 0.0 1.6 0.00 0.00 0.00 45 1013.9
20260906173011 36 341 0.0 1.6 0.00 0.00 0.00 44 1013.8
20260906172505 36 150 1.6 1.6 0.00 0.00 0.00 46 1013.7
20260906172000 36 158 1.6 1.6 0.00 0.00 0.00 50 1013.7
20260906171455 36 140 0.0 0.0 0.00 0.00 0.00 51 1013.9
20260906170950 36 130 0.0 0.0 0.00 0.00 0.00 44 1014.2
20260906170446 36 158 0.0 1.6 0.00 0.00 0.00 47 1014.2
20260906165943 36 128 0.0 0.0 0.00 0.00 0.00 46 1014.2
20260906165442 36 127 0.0 0.0 0.00 0.00 0.00 45 1014.4
20260906164938 36 134 0.0 0.0 0.00 0.00 0.00 46 1014.3
20260906164436 36 135 0.0 0.0 0.00 0.00 0.00 46 1014.4
20260906163933 36 128 0.0 0.0 0.00 0.00 0.00 46 1014.3
20260906163428 35 268 1.6 1.6 0.00 0.00 0.00 47 1014.4
20260906162926 35 133 0.0 1.6 0.00 0.00 0.00 49 1014.3
20260906162425 35 154 0.0 0.0 0.00 0.00 0.00 51 1014.6
20260906161921 35 151 0.0 0.0 0.00 0.00 0.00 52 1014.7
20260906161420 34 126 0.0 0.0 0.00 0.00 0.00 52 1014.6
20260906160919 33 137 0.0 0.0 0.00 0.00 0.00 54 1014.8
20260906160413 33 345 0.0 0.0 0.00 0.00 0.00 52 1014.6
20260906155910 33 324 1.6 3.2 0.00 0.00 0.00 52 1014.4
20260906155404 33 141 0.0 0.0 0.00 0.00 0.00 54 1014.8
20260906154901 33 323 0.0 1.6 0.00 0.00 0.00 56 1014.7
20260906154355 33 322 0.0 1.6 0.00 0.00 0.00 57 1014.3
20260906153853 32 322 0.0 0.0 0.00 0.00 0.00 58 1014.6
20260906153347 32 330 0.0 0.0 0.00 0.00 0.00 59 1014.3
20260906152842 32 330 0.0 1.6 0.00 0.00 0.00 58 1014.6
20260906152337 32 131 0.0 0.0 0.00 0.00 0.00 64 1014.2
20260906151836 31 135 0.0 0.0 0.00 0.00 0.00 59 1014.4
20260906151332 31 153 0.0 0.0 0.00 0.00 0.00 60 1014.4
20260906150828 31 128 0.0 0.0 0.00 0.00 0.00 66 1014.1
20260906150323 30 135 0.0 0.0 0.00 0.00 0.00 69 1014.4
20260906145822 30 137 0.0 0.0 0.00 0.00 0.00 68 1014.1
20260906145321 30 137 0.0 0.0 0.00 0.00 0.00 67 1014.2
20260906144816 31 135 0.0 0.0 0.00 0.00 0.00 67 1014.2
20260906144311 30 129 0.0 0.0 0.00 0.00 0.00 65 1014.1
20260906143811 30 130 0.0 0.0 0.00 0.00 0.00 66 1014.2
20260906143308 30 132 0.0 0.0 0.00 0.00 0.00 65 1014.3
20260906142802 30 132 0.0 0.0 0.00 0.00 0.00 63 1014.1
20260906142257 30 140 0.0 0.0 0.00 0.00 0.00 65 1014.2
20260906141756 30 140 0.0 0.0 0.00 0.00 0.00 64 1014.3
20260906141251 30 125 0.0 0.0 0.00 0.00 0.00 67 1013.9
20260906140750 30 125 0.0 0.0 0.00 0.00 0.00 66 1014.0
20260906140245 29 125 0.0 0.0 0.00 0.00 0.00 69 1014.0
20260906135742 28 125 0.0 0.0 0.00 0.00 0.00 71 1014.0
20260906135238 27 125 0.0 0.0 0.00 0.00 0.00 72 1014.0
20260906134734 27 125 0.0 0.0 0.00 0.00 0.00 75 1013.9
20260906134229 26 125 0.0 0.0 0.00 0.00 0.00 78 1013.6
20260906133724 26 125 0.0 0.0 0.00 0.00 0.00 78 1013.5
20260906133220 25 125 0.0 0.0 0.00 0.00 0.00 80 1013.6
20260906132715 25 125 0.0 0.0 0.00 0.00 0.00 81 1013.5
20260906132211 25 125 0.0 0.0 0.00 0.00 0.00 82 1013.6
20260906131706 24 125 0.0 0.0 0.00 0.00 0.00 83 1013.5
20260906131201 24 125 0.0 0.0 0.00 0.00 0.00 84 1013.5
20260906130656 24 125 0.0 0.0 0.00 0.00 0.00 84 1013.4
20260906130151 23 125 0.0 0.0 0.00 0.00 0.00 85 1013.6
20260906125649 23 134 0.0 0.0 0.00 0.00 0.00 85 1013.5
20260906125148 23 128 0.0 0.0 0.00 0.00 0.00 85 1013.4
20260906124644 23 129 0.0 0.0 0.00 0.00 0.00 86 1013.6
20260906124139 23 129 0.0 0.0 0.00 0.00 0.00 86 1013.5
20260906123638 23 122 0.0 0.0 0.00 0.00 0.00 86 1013.2
20260906123133 23 122 0.0 0.0 0.00 0.00 0.00 86 1012.9
20260906122632 23 122 0.0 0.0 0.00 0.00 0.00 86 1013.3
20260906122128 23 122 0.0 0.0 0.00 0.00 0.00 86 1013.2
20260906121624 23 122 0.0 0.0 0.00 0.00 0.00 86 1013.0
20260906121120 23 122 0.0 0.0 0.00 0.00 0.00 86 1013.2
20260906120615 23 122 0.0 0.0 0.00 0.00 0.00 87 1012.7
20260906120112 23 122 0.0 0.0 0.00 0.00 0.00 87 1012.8
20260906115607 23 122 0.0 0.0 0.00 0.00 0.00 87 1012.8
20260906115102 23 122 0.0 0.0 0.00 0.00 0.00 87 1012.9
20260906114556 23 122 0.0 0.0 0.00 0.00 0.00 87 1012.7
20260906114051 23 122 0.0 0.0 0.00 0.00 0.00 87 1012.8
20260906113550 23 122 0.0 0.0 0.00 0.00 0.00 87 1012.8
20260906113045 23 122 0.0 0.0 0.00 0.00 0.00 86 1012.9
20260906112540 23 122 0.0 0.0 0.00 0.00 0.00 86 1012.5
20260906112037 23 122 0.0 0.0 0.00 0.00 0.00 86 1012.4
20260906111536 23 122 0.0 0.0 0.00 0.00 0.00 86 1012.5
20260906111032 23 122 0.0 0.0 0.00 0.00 0.00 86 1012.6
20260906110531 23 122 0.0 0.0 0.00 0.00 0.00 85 1012.4
20260906110031 23 122 0.0 0.0 0.00 0.00 0.00 85 1012.4
20260906105526 23 122 0.0 0.0 0.00 0.00 0.00 85 1012.6
20260906105022 23 122 0.0 0.0 0.00 0.00 0.00 85 1012.4
20260906104520 23 122 0.0 0.0 0.00 0.00 0.00 85 1012.3
20260906104015 23 122 0.0 0.0 0.00 0.00 0.00 85 1012.1
20260906103513 23 122 0.0 0.0 0.00 0.00 0.00 85 1012.4
20260906103009 23 122 0.0 0.0 0.00 0.00 0.00 85 1012.1
20260906102508 23 122 0.0 0.0 0.00 0.00 0.00 85 1012.3
20260906102003 23 122 0.0 0.0 0.00 0.00 0.00 85 1012.4
20260906101457 23 122 0.0 0.0 0.00 0.00 0.00 85 1012.3
20260906100953 23 122 0.0 0.0 0.00 0.00 0.00 84 1012.4
20260906100448 23 122 0.0 0.0 0.00 0.00 0.00 84 1012.2
20260906095942 23 122 0.0 0.0 0.00 0.00 0.00 84 1012.2
20260906095437 23 122 0.0 0.0 0.00 0.00 0.00 84 1012.2
20260906094932 23 122 0.0 0.0 0.00 0.00 0.00 84 1012.3
20260906094426 24 122 0.0 0.0 0.00 0.00 0.00 84 1012.2
20260906093922 24 122 0.0 0.0 0.00 0.00 0.00 84 1012.1
20260906093418 24 122 0.0 0.0 0.00 0.00 0.00 84 1012.1
20260906092913 24 120 0.0 0.0 0.00 0.00 0.00 84 1012.3
20260906092413 24 119 0.0 0.0 0.00 0.00 0.00 84 1012.0
20260906091908 24 123 0.0 0.0 0.00 0.00 0.00 85 1012.3
20260906091404 24 122 0.0 0.0 0.00 0.00 0.00 84 1012.3
20260906090901 24 123 0.0 0.0 0.00 0.00 0.00 84 1012.4
20260906090400 24 123 0.0 0.0 0.00 0.00 0.00 83 1012.2
20260906085854 24 123 0.0 0.0 0.00 0.00 0.00 82 1012.2
20260906085348 24 123 0.0 0.0 0.00 0.00 0.00 82 1012.0
20260906084843 24 125 0.0 0.0 0.00 0.00 0.00 82 1012.0
20260906084342 24 125 0.0 0.0 0.00 0.00 0.00 81 1011.9
20260906083837 24 125 0.0 0.0 0.00 0.00 0.00 81 1011.8
20260906083332 24 125 0.0 0.0 0.00 0.00 0.00 80 1011.9
20260906082826 24 125 0.0 0.0 0.00 0.00 0.00 80 1012.0
20260906082322 24 124 0.0 0.0 0.00 0.00 0.00 80 1011.7
20260906081818 24 124 0.0 0.0 0.00 0.00 0.00 80 1012.0
20260906081313 24 125 0.0 0.0 0.00 0.00 0.00 81 1011.9
20260906080809 24 121 0.0 0.0 0.00 0.00 0.00 80 1011.7
20260906080305 25 121 0.0 0.0 0.00 0.00 0.00 80 1011.9
20260906075804 25 121 0.0 0.0 0.00 0.00 0.00 80 1011.9
20260906075306 25 121 0.0 0.0 0.00 0.00 0.00 79 1012.0
20260906074800 25 122 0.0 0.0 0.00 0.00 0.00 80 1011.7
20260906074259 25 122 0.0 0.0 0.00 0.00 0.00 80 1011.8
20260906073759 25 122 0.0 0.0 0.00 0.00 0.00 80 1011.8
20260906073253 25 122 0.0 0.0 0.00 0.00 0.00 80 1011.8
20260906072749 25 122 0.0 0.0 0.00 0.00 0.00 79 1011.8
20260906072245 25 123 0.0 0.0 0.00 0.00 0.00 79 1011.8
20260906071741 25 123 0.0 0.0 0.00 0.00 0.00 79 1011.7
20260906071241 25 123 0.0 0.0 0.00 0.00 0.00 78 1011.8
20260906070737 25 123 0.0 0.0 0.00 0.00 0.00 78 1011.7
20260906070233 25 123 0.0 0.0 0.00 0.00 0.00 77 1011.8
20260906065732 25 123 0.0 0.0 0.00 0.00 0.00 77 1012.0
20260906065228 25 123 0.0 0.0 0.00 0.00 0.00 77 1011.8
20260906064723 25 123 0.0 0.0 0.00 0.00 0.00 77 1012.0
20260906064219 25 122 0.0 0.0 0.00 0.00 0.00 77 1012.0
20260906063714 25 123 0.0 0.0 0.00 0.00 0.00 77 1011.8
20260906063209 25 123 0.0 0.0 0.00 0.00 0.00 77 1011.7
20260906062705 25 123 0.0 0.0 0.00 0.00 0.00 77 1012.1
20260906062203 25 123 0.0 0.0 0.00 0.00 0.00 77 1012.0
20260906061659 25 123 0.0 0.0 0.00 0.00 0.00 76 1012.0
20260906061155 26 123 0.0 0.0 0.00 0.00 0.00 76 1012.3
20260906060651 26 123 0.0 0.0 0.00 0.00 0.00 76 1012.1
20260906060148 26 123 0.0 0.0 0.00 0.00 0.00 75 1012.0
20260906055643 26 123 0.0 0.0 0.00 0.00 0.00 75 1011.9
20260906055138 26 123 0.0 0.0 0.00 0.00 0.00 73 1011.9
20260906054634 26 123 0.0 0.0 0.00 0.00 0.00 73 1012.0
20260906054128 26 123 0.0 0.0 0.00 0.00 0.00 72 1011.8
20260906053625 26 124 0.0 0.0 0.00 0.00 0.00 72 1012.0
20260906053120 26 123 0.0 0.0 0.00 0.00 0.00 72 1011.8
20260906052616 26 123 0.0 0.0 0.00 0.00 0.00 71 1012.0
20260906052112 26 123 0.0 0.0 0.00 0.00 0.00 71 1012.2
20260906051608 26 124 0.0 0.0 0.00 0.00 0.00 70 1012.0
20260906051103 27 124 0.0 0.0 0.00 0.00 0.00 70 1011.9
20260906050558 27 124 0.0 0.0 0.00 0.00 0.00 69 1012.0
20260906050054 27 124 0.0 0.0 0.00 0.00 0.00 69 1011.9
20260906045551 27 124 0.0 0.0 0.00 0.00 0.00 69 1011.9
20260906045047 27 123 0.0 0.0 0.00 0.00 0.00 68 1011.8
20260906044543 27 123 0.0 0.0 0.00 0.00 0.00 69 1011.9
20260906044038 27 123 0.0 0.0 0.00 0.00 0.00 69 1011.8
20260906043534 27 123 0.0 0.0 0.00 0.00 0.00 68 1011.8
20260906043030 27 123 0.0 0.0 0.00 0.00 0.00 67 1011.7
20260906042528 27 124 0.0 0.0 0.00 0.00 0.00 67 1011.8
20260906042023 27 134 0.0 0.0 0.00 0.00 0.00 67 1011.7
20260906041519 27 134 0.0 0.0 0.00 0.00 0.00 66 1011.8
20260906041014 27 134 0.0 0.0 0.00 0.00 0.00 66 1011.9
20260906040509 27 134 0.0 0.0 0.00 0.00 0.00 66 1011.8
20260906040004 27 134 0.0 0.0 0.00 0.00 0.00 66 1011.9
20260906035459 27 134 0.0 0.0 0.00 0.00 0.00 66 1011.9
20260906034954 27 134 0.0 0.0 0.00 0.00 0.00 66 1011.9
20260906034448 27 134 0.0 0.0 0.00 0.00 0.00 66 1011.8
20260906033944 28 134 0.0 0.0 0.00 0.00 0.00 66 1011.7
20260906033438 28 134 0.0 0.0 0.00 0.00 0.00 66 1011.8
20260906032934 28 134 0.0 0.0 0.00 0.00 0.00 65 1011.7
20260906032431 28 134 0.0 0.0 0.00 0.00 0.00 66 1011.6
20260906031931 28 134 0.0 0.0 0.00 0.00 0.00 65 1011.7
20260906031426 28 134 0.0 0.0 0.00 0.00 0.00 65 1011.6
20260906030921 28 134 0.0 0.0 0.00 0.00 0.00 64 1011.6
20260906030416 28 134 0.0 0.0 0.00 0.00 0.00 64 1011.6
20260906025910 28 134 0.0 0.0 0.00 0.00 0.00 64 1011.6
20260906025405 28 134 0.0 0.0 0.00 0.00 0.00 63 1011.7
20260906024904 28 134 0.0 0.0 0.00 0.00 0.00 63 1011.4
20260906024403 28 134 0.0 0.0 0.00 0.00 0.00 63 1011.2
20260906023858 28 134 0.0 0.0 0.00 0.00 0.00 63 1011.5
20260906023354 29 134 0.0 0.0 0.00 0.00 0.00 62 1011.3
20260906022849 29 134 0.0 0.0 0.00 0.00 0.00 64 1011.4
20260906022344 29 134 0.0 0.0 0.00 0.00 0.00 62 1010.9
20260906021840 29 134 0.0 0.0 0.00 0.00 0.00 61 1011.0
20260906021339 29 134 0.0 0.0 0.00 0.00 0.00 61 1010.9
20260906020834 30 134 0.0 0.0 0.00 0.00 0.00 61 1011.1
20260906020333 30 134 0.0 0.0 0.00 0.00 0.00 61 1011.0
20260906015828 30 134 0.0 0.0 0.00 0.00 0.00 60 1010.5
20260906015327 30 134 0.0 0.0 0.00 0.00 0.00 61 1010.5
20260906014827 30 134 0.0 0.0 0.00 0.00 0.00 61 1010.5
20260906014322 30 134 0.0 0.0 0.00 0.00 0.00 60 1010.7
20260906013818 30 134 0.0 0.0 0.00 0.00 0.00 60 1010.7
20260906013313 30 134 0.0 0.0 0.00 0.00 0.00 60 1010.4
20260906012809 30 134 0.0 0.0 0.00 0.00 0.00 59 1010.4
20260906012309 30 134 0.0 0.0 0.00 0.00 0.00 59 1010.5
20260906011803 31 134 0.0 0.0 0.00 0.00 0.00 58 1010.3
20260906011258 31 134 0.0 0.0 0.00 0.00 0.00 58 1010.7
20260906010754 31 134 0.0 0.0 0.00 0.00 0.00 57 1010.5
20260906010250 31 134 0.0 0.0 0.00 0.00 0.00 56 1010.5
20260906005744 32 134 0.0 0.0 0.00 0.00 0.00 54 1010.7
20260906005238 32 134 0.0 0.0 0.00 0.00 0.00 53 1010.4
20260906004737 32 134 0.0 0.0 0.00 0.00 0.00 53 1010.3
20260906004233 32 134 0.0 0.0 0.00 0.00 0.00 52 1010.2
20260906003733 33 134 0.0 0.0 0.00 0.00 0.00 51 1010.2
20260906003228 33 134 0.0 0.0 0.00 0.00 0.00 50 1010.0
20260906002723 33 137 0.0 0.0 0.00 0.00 0.00 48 1010.4
20260906002218 34 132 0.0 0.0 0.00 0.00 0.00 48 1010.5
20260906001713 35 132 0.0 0.0 0.00 0.00 0.00 47 1010.4
20260906001214 35 140 0.0 0.0 0.00 0.00 0.00 45 1010.3
20260906000709 36 133 0.0 0.0 0.00 0.00 0.00 44 1010.4
20260906000204 36 133 0.0 0.0 0.00 0.00 0.00 42 1010.3
20260905235703 37 136 0.0 0.0 0.00 0.00 0.00 41 1010.3
20260905235158 38 124 0.0 0.0 0.00 0.00 0.00 38 1010.2
20260905234654 38 144 0.0 1.6 0.00 0.00 0.00 37 1010.0
20260905234149 38 105 0.0 0.0 0.00 0.00 0.00 37 1010.2
20260905233644 39 134 0.0 0.0 0.00 0.00 0.00 38 1010.0
20260905233143 38 133 0.0 0.0 0.00 0.00 0.00 39 1009.9
20260905232638 38 143 0.0 0.0 0.00 0.00 0.00 39 1009.9
20260905232134 39 155 0.0 0.0 0.00 0.00 0.00 38 1009.8
20260905231629 39 139 0.0 0.0 0.00 0.00 0.00 36 1009.9
20260905231125 40 145 0.0 0.0 0.00 0.00 0.00 36 1009.9
20260905230615 40 163 0.0 0.0 0.00 0.00 0.00 37 1009.8
20260905230112 39 164 0.0 0.0 0.00 0.00 0.00 36 1010.0
20260905225607 39 135 0.0 0.0 0.00 0.00 0.00 36 1009.8
20260905225101 40 138 0.0 0.0 0.00 0.00 0.00 36 1009.8
20260905224556 40 157 1.6 1.6 0.00 0.00 0.00 34 1009.9
20260905224055 40 129 0.0 0.0 0.00 0.00 0.00 34 1009.9
20260905223553 40 136 1.6 1.6 0.00 0.00 0.00 35 1009.7
20260905223048 40 144 1.6 1.6 0.00 0.00 0.00 35 1009.8
20260905222543 40 157 0.0 0.0 0.00 0.00 0.00 36 1009.8
20260905222038 40 162 0.0 0.0 0.00 0.00 0.00 35 1009.9
20260905221534 40 1 1.6 3.2 0.00 0.00 0.00 35 1010.0
20260905221030 40 165 0.0 1.6 0.00 0.00 0.00 35 1009.8
20260905220525 40 148 0.0 0.0 0.00 0.00 0.00 36 1010.1
20260905220021 40 124 0.0 0.0 0.00 0.00 0.00 35 1010.1
20260905215515 40 136 0.0 0.0 0.00 0.00 0.00 36 1009.8
20260905215012 39 127 0.0 0.0 0.00 0.00 0.00 37 1010.0
20260905214508 39 103 0.0 3.2 0.00 0.00 0.00 37 1010.2
20260905214008 38 141 0.0 0.0 0.00 0.00 0.00 35 1010.1
20260905213503 39 135 0.0 0.0 0.00 0.00 0.00 36 1010.2
20260905212958 39 216 0.0 1.6 0.00 0.00 0.00 36 1010.1
20260905212453 38 131 0.0 1.6 0.00 0.00 0.00 36 1010.1
20260905211952 38 134 0.0 0.0 0.00 0.00 0.00 36 1010.5
20260905211448 38 221 1.6 1.6 0.00 0.00 0.00 36 1010.5
20260905210944 39 143 0.0 0.0 0.00 0.00 0.00 39 1010.7
20260905210439 38 119 0.0 0.0 0.00 0.00 0.00 41 1010.7
20260905205938 38 132 1.6 1.6 0.00 0.00 0.00 37 1010.5
20260905205433 38 117 1.6 3.2 0.00 0.00 0.00 38 1010.8
20260905204932 38 147 1.6 3.2 0.00 0.00 0.00 37 1010.9
20260905204428 38 159 0.0 0.0 0.00 0.00 0.00 38 1010.9
20260905203927 38 124 0.0 0.0 0.00 0.00 0.00 40 1010.8
20260905203422 38 149 0.0 1.6 0.00 0.00 0.00 39 1011.0
20260905202918 38 118 0.0 0.0 0.00 0.00 0.00 39 1011.1